Location: Lesignano de� Bagni
(44.6500°N, 10.3000°E)
Time: 14:44:58
(UTC+00:00)

Cosmos 2263 Rocket - Pass Details

Date: 03 March 2021
Orbit: 825 x 847 km, 71.0° (Epoch: 18 April)

Event Time Altitude Azimuth Distance (km) Brightness Sun altitude
Rises 17:48:23 0° 330° (NNW) 3,371 5.8 -7.7°
Reaches altitude 10° 17:50:52 10° 325° (NW) 2,434 5.1 -8.2°
Maximum altitude 17:56:14 51° 251° (WSW) 1,038 3.2 -9.1°
Drops below altitude 10° 18:01:34 10° 177° (S) 2,422 4.6 -10.1°
Sets 18:04:03 0° 172° (S) 3,353 5.2 -10.5°
